owner,sensor,date,latitude,longitude,vertical_datum,mass_concentration_of_oxygen_in_sea_water,qcFlag 
SCCF RECON,ioos:station:SCCF:53:1,2009-04-01T00:00:00Z,26.6493,-81.8810,2.446,8.11,1111122 
SCCF RECON,ioos:station:SCCF:53:1,2009-04-01T01:00:00Z,26.6493,-81.8810,2.387,9.08,1111122 
SCCF RECON,ioos:station:SCCF:53:1,2009-04-01T02:00:00Z,26.6493,-81.8810,2.335,8.65,1111122 
SCCF RECON,ioos:station:SCCF:53:1,2009-04-01T03:00:00Z,26.6493,-81.8810,2.28,8.93,1111122 
SCCF RECON,ioos:station:SCCF:53:1,2009-04-01T04:00:00Z,26.6493,-81.8810,2.22,8.47,1111122 
SCCF RECON,ioos:station:SCCF:53:1,2009-04-01T05:00:00Z,26.6493,-81.8810,2.15,8.16,1111122 
SCCF RECON,ioos:station:SCCF:53:1,2009-04-01T06:00:00Z,26.6493,-81.8810,2.1,8.68,1111122 
SCCF RECON,ioos:station:SCCF:53:1,2009-04-01T07:00:00Z,26.6493,-81.8810,2.04,8.61,1111122 
SCCF RECON,ioos:station:SCCF:53:1,2009-04-01T08:00:00Z,26.6493,-81.8810,2.0,8.61,1111122 
SCCF RECON,ioos:station:SCCF:53:1,2009-04-01T09:00:00Z,26.6493,-81.8810,1.98,7.95,1111122 
SCCF RECON,ioos:station:SCCF:53:1,2009-04-01T10:00:00Z,26.6493,-81.8810,1.99,7.87,1111122 
SCCF RECON,ioos:station:SCCF:53:1,2009-04-01T11:00:00Z,26.6493,-81.8810,2.04,7.72,1111122 
SCCF RECON,ioos:station:SCCF:53:1,2009-04-01T12:00:00Z,26.6493,-81.8810,2.083,7.63,1111122 
SCCF RECON,ioos:station:SCCF:53:1,2009-04-01T13:00:00Z,26.6493,-81.8810,2.13,7.6,1111122 
SCCF RECON,ioos:station:SCCF:53:1,2009-04-01T14:00:00Z,26.6493,-81.8810,2.171,7.71,1111122 
SCCF RECON,ioos:station:SCCF:53:1,2009-04-01T15:00:00Z,26.6493,-81.8810,2.217,7.78,1111122 
SCCF RECON,ioos:station:SCCF:53:1,2009-04-01T16:00:00Z,26.6493,-81.8810,2.252,7.62,1111122 
SCCF RECON,ioos:station:SCCF:53:1,2009-04-01T17:00:00Z,26.6493,-81.8810,2.294,7.67,1111122 
SCCF RECON,ioos:station:SCCF:53:1,2009-04-01T18:00:00Z,26.6493,-81.8810,2.316,7.86,1111122 
SCCF RECON,ioos:station:SCCF:53:1,2009-04-01T19:00:00Z,26.6493,-81.8810,2.341,7.8,1111122 
SCCF RECON,ioos:station:SCCF:53:1,2009-04-01T20:00:00Z,26.6493,-81.8810,2.377,7.74,1111122 
SCCF RECON,ioos:station:SCCF:53:1,2009-04-01T21:00:00Z,26.6493,-81.8810,2.412,7.68,1111122 
SCCF RECON,ioos:station:SCCF:53:1,2009-04-01T22:00:00Z,26.6493,-81.8810,2.453,7.53,1111122 
SCCF RECON,ioos:station:SCCF:53:1,2009-04-01T23:00:00Z,26.6493,-81.8810,2.483,7.46,1111122 
SCCF RECON,ioos:station:SCCF:53:1,2009-04-02T00:00:00Z,26.6493,-81.8810,2.5,7.45,1111122 
SCCF RECON,ioos:station:SCCF:53:1,2009-04-02T01:00:00Z,26.6493,-81.8810,2.482,7.27,1111122 
SCCF RECON,ioos:station:SCCF:53:1,2009-04-02T02:00:00Z,26.6493,-81.8810,2.43,7.39,1111122 
SCCF RECON,ioos:station:SCCF:53:1,2009-04-02T03:00:00Z,26.6493,-81.8810,2.376,7.3,1111122 
SCCF RECON,ioos:station:SCCF:53:1,2009-04-02T04:00:00Z,26.6493,-81.8810,2.31,6.99,1111122 
SCCF RECON,ioos:station:SCCF:53:1,2009-04-02T05:00:00Z,26.6493,-81.8810,2.249,6.8,1111122 
SCCF RECON,ioos:station:SCCF:53:1,2009-04-02T06:00:00Z,26.6493,-81.8810,2.18,6.92,1111122 
SCCF RECON,ioos:station:SCCF:53:1,2009-04-02T07:00:00Z,26.6493,-81.8810,2.119,6.85,1111122 
SCCF RECON,ioos:station:SCCF:53:1,2009-04-02T08:00:00Z,26.6493,-81.8810,2.05,6.58,1111122 
SCCF RECON,ioos:station:SCCF:53:1,2009-04-02T09:00:00Z,26.6493,-81.8810,2.01,6.43,1111122 
SCCF RECON,ioos:station:SCCF:53:1,2009-04-02T10:00:00Z,26.6493,-81.8810,2.0,6.29,1111122 
SCCF RECON,ioos:station:SCCF:53:1,2009-04-02T11:00:00Z,26.6493,-81.8810,2.01,6.28,1111122 
SCCF RECON,ioos:station:SCCF:53:1,2009-04-02T12:00:00Z,26.6493,-81.8810,2.06,6.29,1111122 
SCCF RECON,ioos:station:SCCF:53:1,2009-04-02T13:00:00Z,26.6493,-81.8810,2.11,6.33,1111122 
SCCF RECON,ioos:station:SCCF:53:1,2009-04-02T14:00:00Z,26.6493,-81.8810,2.16,6.27,1111122 
SCCF RECON,ioos:station:SCCF:53:1,2009-04-02T15:00:00Z,26.6493,-81.8810,2.21,6.63,1111122 
SCCF RECON,ioos:station:SCCF:53:1,2009-04-02T16:00:00Z,26.6493,-81.8810,2.256,6.62,1111122 
SCCF RECON,ioos:station:SCCF:53:1,2009-04-02T17:00:00Z,26.6493,-81.8810,2.288,6.46,1111122 
SCCF RECON,ioos:station:SCCF:53:1,2009-04-02T18:00:00Z,26.6493,-81.8810,2.313,6.65,1111122 
SCCF RECON,ioos:station:SCCF:53:1,2009-04-02T19:00:00Z,26.6493,-81.8810,2.338,6.81,1111122 
SCCF RECON,ioos:station:SCCF:53:1,2009-04-02T20:00:00Z,26.6493,-81.8810,2.37,6.73,1111122 
SCCF RECON,ioos:station:SCCF:53:1,2009-04-02T21:00:00Z,26.6493,-81.8810,2.405,7.31,1111122 
SCCF RECON,ioos:station:SCCF:53:1,2009-04-02T22:00:00Z,26.6493,-81.8810,2.43,7.03,1111122 
SCCF RECON,ioos:station:SCCF:53:1,2009-04-02T23:00:00Z,26.6493,-81.8810,2.454,6.95,1111122 
SCCF RECON,ioos:station:SCCF:53:1,2009-04-03T00:00:00Z,26.6493,-81.8810,2.481,6.73,1111122 
SCCF RECON,ioos:station:SCCF:53:1,2009-04-03T01:00:00Z,26.6493,-81.8810,2.5,6.86,1111122 
SCCF RECON,ioos:station:SCCF:53:1,2009-04-03T02:00:00Z,26.6493,-81.8810,2.495,6.8,1111122 
SCCF RECON,ioos:station:SCCF:53:1,2009-04-03T03:00:00Z,26.6493,-81.8810,2.461,6.8,1111122 
SCCF RECON,ioos:station:SCCF:53:1,2009-04-03T04:00:00Z,26.6493,-81.8810,2.42,6.82,1111122 
SCCF RECON,ioos:station:SCCF:53:1,2009-04-03T05:00:00Z,26.6493,-81.8810,2.365,6.47,1111122 
SCCF RECON,ioos:station:SCCF:53:1,2009-04-03T06:00:00Z,26.6493,-81.8810,2.319,6.3,1111122 
SCCF RECON,ioos:station:SCCF:53:1,2009-04-03T07:00:00Z,26.6493,-81.8810,2.263,6.49,1111122 
SCCF RECON,ioos:station:SCCF:53:1,2009-04-03T08:00:00Z,26.6493,-81.8810,2.207,6.5,1111122 
SCCF RECON,ioos:station:SCCF:53:1,2009-04-03T09:00:00Z,26.6493,-81.8810,2.162,6.25,1111122 
SCCF RECON,ioos:station:SCCF:53:1,2009-04-03T10:00:00Z,26.6493,-81.8810,2.125,6.15,1111122 
SCCF RECON,ioos:station:SCCF:53:1,2009-04-03T11:00:00Z,26.6493,-81.8810,2.104,6.08,1111122 
SCCF RECON,ioos:station:SCCF:53:1,2009-04-03T12:00:00Z,26.6493,-81.8810,2.113,6.18,1111122 
SCCF RECON,ioos:station:SCCF:53:1,2009-04-03T13:00:00Z,26.6493,-81.8810,2.173,6.19,1111122 
SCCF RECON,ioos:station:SCCF:53:1,2009-04-03T14:00:00Z,26.6493,-81.8810,2.228,6.31,1111122 
SCCF RECON,ioos:station:SCCF:53:1,2009-04-03T15:00:00Z,26.6493,-81.8810,2.29,6.64,1111122 
SCCF RECON,ioos:station:SCCF:53:1,2009-04-03T16:00:00Z,26.6493,-81.8810,2.35,6.55,1111122 
SCCF RECON,ioos:station:SCCF:53:1,2009-04-03T17:00:00Z,26.6493,-81.8810,2.404,6.58,1111122 
SCCF RECON,ioos:station:SCCF:53:1,2009-04-03T18:00:00Z,26.6493,-81.8810,2.428,6.65,1111122 
SCCF RECON,ioos:station:SCCF:53:1,2009-04-03T19:00:00Z,26.6493,-81.8810,2.433,6.82,1111122 
SCCF RECON,ioos:station:SCCF:53:1,2009-04-03T20:00:00Z,26.6493,-81.8810,2.429,6.78,1111122 
SCCF RECON,ioos:station:SCCF:53:1,2009-04-03T21:00:00Z,26.6493,-81.8810,2.418,6.7,1111122 
SCCF RECON,ioos:station:SCCF:53:1,2009-04-03T22:00:00Z,26.6493,-81.8810,2.426,6.7,1111122 
SCCF RECON,ioos:station:SCCF:53:1,2009-04-03T23:00:00Z,26.6493,-81.8810,2.453,6.55,1111122 
SCCF RECON,ioos:station:SCCF:53:1,2009-04-04T00:00:00Z,26.6493,-81.8810,2.48,6.54,1111122 
SCCF RECON,ioos:station:SCCF:53:1,2009-04-04T01:00:00Z,26.6493,-81.8810,2.47,6.56,1111122 
SCCF RECON,ioos:station:SCCF:53:1,2009-04-04T02:00:00Z,26.6493,-81.8810,2.44,6.53,1111122 
SCCF RECON,ioos:station:SCCF:53:1,2009-04-04T03:00:00Z,26.6493,-81.8810,2.41,6.37,1111122 
SCCF RECON,ioos:station:SCCF:53:1,2009-04-04T04:00:00Z,26.6493,-81.8810,2.362,6.49,1111122 
SCCF RECON,ioos:station:SCCF:53:1,2009-04-04T05:00:00Z,26.6493,-81.8810,2.32,6.36,1111122 
SCCF RECON,ioos:station:SCCF:53:1,2009-04-04T06:00:00Z,26.6493,-81.8810,2.27,6.29,1111122 
SCCF RECON,ioos:station:SCCF:53:1,2009-04-04T07:00:00Z,26.6493,-81.8810,2.21,6.11,1111122 
SCCF RECON,ioos:station:SCCF:53:1,2009-04-04T08:00:00Z,26.6493,-81.8810,2.15,5.88,1111122 
SCCF RECON,ioos:station:SCCF:53:1,2009-04-04T09:00:00Z,26.6493,-81.8810,2.09,5.93,1111122 
SCCF RECON,ioos:station:SCCF:53:1,2009-04-04T10:00:00Z,26.6493,-81.8810,2.044,5.83,1111122 
SCCF RECON,ioos:station:SCCF:53:1,2009-04-04T11:00:00Z,26.6493,-81.8810,2.0,5.85,1111122 
SCCF RECON,ioos:station:SCCF:53:1,2009-04-04T12:00:00Z,26.6493,-81.8810,1.98,5.91,1111122 
SCCF RECON,ioos:station:SCCF:53:1,2009-04-04T13:00:00Z,26.6493,-81.8810,1.983,5.9,1111122 
SCCF RECON,ioos:station:SCCF:53:1,2009-04-04T14:00:00Z,26.6493,-81.8810,2.023,5.92,1111122 
SCCF RECON,ioos:station:SCCF:53:1,2009-04-04T15:00:00Z,26.6493,-81.8810,2.07,5.83,1111122 
SCCF RECON,ioos:station:SCCF:53:1,2009-04-04T16:00:00Z,26.6493,-81.8810,2.111,5.82,1111122 
SCCF RECON,ioos:station:SCCF:53:1,2009-04-04T17:00:00Z,26.6493,-81.8810,2.151,6.16,1111122 
SCCF RECON,ioos:station:SCCF:53:1,2009-04-04T18:00:00Z,26.6493,-81.8810,2.18,5.92,1111122 
SCCF RECON,ioos:station:SCCF:53:1,2009-04-04T19:00:00Z,26.6493,-81.8810,2.184,5.66,1111122 
SCCF RECON,ioos:station:SCCF:53:1,2009-04-04T20:00:00Z,26.6493,-81.8810,2.174,5.53,1111122 
SCCF RECON,ioos:station:SCCF:53:1,2009-04-04T21:00:00Z,26.6493,-81.8810,2.14,5.59,1111122 
SCCF RECON,ioos:station:SCCF:53:1,2009-04-04T22:00:00Z,26.6493,-81.8810,2.119,5.48,1111122 
SCCF RECON,ioos:station:SCCF:53:1,2009-04-04T23:00:00Z,26.6493,-81.8810,2.13,5.37,1111122 
SCCF RECON,ioos:station:SCCF:53:1,2009-04-05T00:00:00Z,26.6493,-81.8810,2.171,5.28,1111122 
SCCF RECON,ioos:station:SCCF:53:1,2009-04-05T01:00:00Z,26.6493,-81.8810,2.22,5.6,1111122 
SCCF RECON,ioos:station:SCCF:53:1,2009-04-05T02:00:00Z,26.6493,-81.8810,2.26,6.17,1111122 
SCCF RECON,ioos:station:SCCF:53:1,2009-04-05T03:00:00Z,26.6493,-81.8810,2.31,5.68,1111122 
SCCF RECON,ioos:station:SCCF:53:1,2009-04-05T04:00:00Z,26.6493,-81.8810,2.34,6.54,1111122 
SCCF RECON,ioos:station:SCCF:53:1,2009-04-05T05:00:00Z,26.6493,-81.8810,2.34,6.97,1111122 
SCCF RECON,ioos:station:SCCF:53:1,2009-04-05T06:00:00Z,26.6493,-81.8810,2.31,6.81,1111122 
SCCF RECON,ioos:station:SCCF:53:1,2009-04-05T07:00:00Z,26.6493,-81.8810,2.25,6.54,1111122 
SCCF RECON,ioos:station:SCCF:53:1,2009-04-05T08:00:00Z,26.6493,-81.8810,2.19,5.85,1111122 
SCCF RECON,ioos:station:SCCF:53:1,2009-04-05T09:00:00Z,26.6493,-81.8810,2.13,5.44,1111122 
SCCF RECON,ioos:station:SCCF:53:1,2009-04-05T10:00:00Z,26.6493,-81.8810,2.08,5.52,1111122 
SCCF RECON,ioos:station:SCCF:53:1,2009-04-05T11:00:00Z,26.6493,-81.8810,2.03,5.83,1111122 
SCCF RECON,ioos:station:SCCF:53:1,2009-04-05T12:00:00Z,26.6493,-81.8810,1.991,5.32,1111122 
SCCF RECON,ioos:station:SCCF:53:1,2009-04-05T13:00:00Z,26.6493,-81.8810,1.99,5.39,1111122 
SCCF RECON,ioos:station:SCCF:53:1,2009-04-05T14:00:00Z,26.6493,-81.8810,2.03,5.21,1111122 
SCCF RECON,ioos:station:SCCF:53:1,2009-04-05T15:00:00Z,26.6493,-81.8810,2.084,5.71,1111122 
SCCF RECON,ioos:station:SCCF:53:1,2009-04-05T16:00:00Z,26.6493,-81.8810,2.137,6.66,1111122 
SCCF RECON,ioos:station:SCCF:53:1,2009-04-05T17:00:00Z,26.6493,-81.8810,2.198,7.4,1111122 
SCCF RECON,ioos:station:SCCF:53:1,2009-04-05T18:00:00Z,26.6493,-81.8810,2.244,7.26,1111122 
SCCF RECON,ioos:station:SCCF:53:1,2009-04-05T19:00:00Z,26.6493,-81.8810,2.273,7.33,1111122 
SCCF RECON,ioos:station:SCCF:53:1,2009-04-05T20:00:00Z,26.6493,-81.8810,2.265,7.46,1111122 
SCCF RECON,ioos:station:SCCF:53:1,2009-04-05T21:00:00Z,26.6493,-81.8810,2.227,7.89,1111122 
SCCF RECON,ioos:station:SCCF:53:1,2009-04-05T22:00:00Z,26.6493,-81.8810,2.188,8.01,1111122 
SCCF RECON,ioos:station:SCCF:53:1,2009-04-05T23:00:00Z,26.6493,-81.8810,2.152,7.77,1111122 
SCCF RECON,ioos:station:SCCF:53:1,2009-04-06T00:00:00Z,26.6493,-81.8810,2.13,7.55,1111122 
SCCF RECON,ioos:station:SCCF:53:1,2009-04-06T01:00:00Z,26.6493,-81.8810,2.159,7.32,1111122 
SCCF RECON,ioos:station:SCCF:53:1,2009-04-06T02:00:00Z,26.6493,-81.8810,2.21,7.36,1111122 
SCCF RECON,ioos:station:SCCF:53:1,2009-04-06T03:00:00Z,26.6493,-81.8810,2.255,7.34,1111122 
SCCF RECON,ioos:station:SCCF:53:1,2009-04-06T04:00:00Z,26.6493,-81.8810,2.309,7.32,1111122 
SCCF RECON,ioos:station:SCCF:53:1,2009-04-06T05:00:00Z,26.6493,-81.8810,2.352,7.13,1111122 
SCCF RECON,ioos:station:SCCF:53:1,2009-04-06T06:00:00Z,26.6493,-81.8810,2.374,6.89,1111122 
SCCF RECON,ioos:station:SCCF:53:1,2009-04-06T07:00:00Z,26.6493,-81.8810,2.35,6.76,1111122 
SCCF RECON,ioos:station:SCCF:53:1,2009-04-06T08:00:00Z,26.6493,-81.8810,2.295,6.83,1111122 
SCCF RECON,ioos:station:SCCF:53:1,2009-04-06T09:00:00Z,26.6493,-81.8810,2.241,6.9,1111122 
SCCF RECON,ioos:station:SCCF:53:1,2009-04-06T10:00:00Z,26.6493,-81.8810,2.188,6.65,1111122 
SCCF RECON,ioos:station:SCCF:53:1,2009-04-06T11:00:00Z,26.6493,-81.8810,2.137,6.17,1111122 
SCCF RECON,ioos:station:SCCF:53:1,2009-04-06T12:00:00Z,26.6493,-81.8810,2.091,5.98,1111122 
SCCF RECON,ioos:station:SCCF:53:1,2009-04-06T13:00:00Z,26.6493,-81.8810,2.06,5.95,1111122 
SCCF RECON,ioos:station:SCCF:53:1,2009-04-06T14:00:00Z,26.6493,-81.8810,2.091,6.01,1111122 
SCCF RECON,ioos:station:SCCF:53:1,2009-04-06T15:00:00Z,26.6493,-81.8810,2.143,6.55,1111122 
SCCF RECON,ioos:station:SCCF:53:1,2009-04-06T16:00:00Z,26.6493,-81.8810,2.187,6.75,1111122 
SCCF RECON,ioos:station:SCCF:53:1,2009-04-06T17:00:00Z,26.6493,-81.8810,2.244,6.78,1111122 
SCCF RECON,ioos:station:SCCF:53:1,2009-04-06T18:00:00Z,26.6493,-81.8810,2.3,6.82,1111122 
SCCF RECON,ioos:station:SCCF:53:1,2009-04-06T19:00:00Z,26.6493,-81.8810,2.334,6.86,1111122 
SCCF RECON,ioos:station:SCCF:53:1,2009-04-06T20:00:00Z,26.6493,-81.8810,2.337,6.92,1111122 
SCCF RECON,ioos:station:SCCF:53:1,2009-04-06T21:00:00Z,26.6493,-81.8810,2.307,7.13,1111122 
SCCF RECON,ioos:station:SCCF:53:1,2009-04-06T22:00:00Z,26.6493,-81.8810,2.272,7.08,1111122 
SCCF RECON,ioos:station:SCCF:53:1,2009-04-06T23:00:00Z,26.6493,-81.8810,2.228,6.84,1111122 
SCCF RECON,ioos:station:SCCF:53:1,2009-04-07T00:00:00Z,26.6493,-81.8810,2.188,6.78,1111122 
SCCF RECON,ioos:station:SCCF:53:1,2009-04-07T01:00:00Z,26.6493,-81.8810,2.149,6.63,1111122 
SCCF RECON,ioos:station:SCCF:53:1,2009-04-07T02:00:00Z,26.6493,-81.8810,2.13,6.68,1111122 
SCCF RECON,ioos:station:SCCF:53:1,2009-04-07T03:00:00Z,26.6493,-81.8810,2.151,6.29,1111122 
SCCF RECON,ioos:station:SCCF:53:1,2009-04-07T04:00:00Z,26.6493,-81.8810,2.205,6.61,1111122 
SCCF RECON,ioos:station:SCCF:53:1,2009-04-07T05:00:00Z,26.6493,-81.8810,2.25,6.48,1111122 
SCCF RECON,ioos:station:SCCF:53:1,2009-04-07T06:00:00Z,26.6493,-81.8810,2.294,6.51,1111122 
SCCF RECON,ioos:station:SCCF:53:1,2009-04-07T07:00:00Z,26.6493,-81.8810,2.317,6.53,1111122 
SCCF RECON,ioos:station:SCCF:53:1,2009-04-07T08:00:00Z,26.6493,-81.8810,2.28,6.56,1111122 
SCCF RECON,ioos:station:SCCF:53:1,2009-04-07T09:00:00Z,26.6493,-81.8810,2.239,6.53,1111122 
SCCF RECON,ioos:station:SCCF:53:1,2009-04-07T10:00:00Z,26.6493,-81.8810,2.198,6.44,1111122 
SCCF RECON,ioos:station:SCCF:53:1,2009-04-07T11:00:00Z,26.6493,-81.8810,2.141,6.31,1111122 
SCCF RECON,ioos:station:SCCF:53:1,2009-04-07T12:00:00Z,26.6493,-81.8810,2.102,6.16,1111122 
SCCF RECON,ioos:station:SCCF:53:1,2009-04-07T13:00:00Z,26.6493,-81.8810,2.063,6.12,1111122 
SCCF RECON,ioos:station:SCCF:53:1,2009-04-07T14:00:00Z,26.6493,-81.8810,2.023,6.13,1111122 
SCCF RECON,ioos:station:SCCF:53:1,2009-04-07T15:00:00Z,26.6493,-81.8810,2.01,6.24,1111122 
SCCF RECON,ioos:station:SCCF:53:1,2009-04-07T16:00:00Z,26.6493,-81.8810,2.037,6.43,1111122 
SCCF RECON,ioos:station:SCCF:53:1,2009-04-07T17:00:00Z,26.6493,-81.8810,2.067,6.62,1111122 
SCCF RECON,ioos:station:SCCF:53:1,2009-04-07T18:00:00Z,26.6493,-81.8810,2.099,7.06,1111122 
SCCF RECON,ioos:station:SCCF:53:1,2009-04-07T19:00:00Z,26.6493,-81.8810,2.114,7.19,1111122 
SCCF RECON,ioos:station:SCCF:53:1,2009-04-07T20:00:00Z,26.6493,-81.8810,2.11,7.18,1111122 
SCCF RECON,ioos:station:SCCF:53:1,2009-04-07T21:00:00Z,26.6493,-81.8810,2.065,7.45,1111122 
SCCF RECON,ioos:station:SCCF:53:1,2009-04-07T22:00:00Z,26.6493,-81.8810,2.03,7.28,1111122 
SCCF RECON,ioos:station:SCCF:53:1,2009-04-07T23:00:00Z,26.6493,-81.8810,1.994,7.35,1111122 
SCCF RECON,ioos:station:SCCF:53:1,2009-04-08T00:00:00Z,26.6493,-81.8810,1.962,7.31,1111122 
SCCF RECON,ioos:station:SCCF:53:1,2009-04-08T01:00:00Z,26.6493,-81.8810,1.929,7.13,1111122 
SCCF RECON,ioos:station:SCCF:53:1,2009-04-08T02:00:00Z,26.6493,-81.8810,1.9,6.96,1111122 
SCCF RECON,ioos:station:SCCF:53:1,2009-04-08T03:00:00Z,26.6493,-81.8810,1.892,6.87,1111122 
SCCF RECON,ioos:station:SCCF:53:1,2009-04-08T04:00:00Z,26.6493,-81.8810,1.95,6.88,1111122 
SCCF RECON,ioos:station:SCCF:53:1,2009-04-08T05:00:00Z,26.6493,-81.8810,1.99,7.21,1111122 
SCCF RECON,ioos:station:SCCF:53:1,2009-04-08T06:00:00Z,26.6493,-81.8810,2.03,7.29,1111122 
SCCF RECON,ioos:station:SCCF:53:1,2009-04-08T07:00:00Z,26.6493,-81.8810,2.08,7.2,1111122 
SCCF RECON,ioos:station:SCCF:53:1,2009-04-08T08:00:00Z,26.6493,-81.8810,2.1,7.11,1111122 
SCCF RECON,ioos:station:SCCF:53:1,2009-04-08T09:00:00Z,26.6493,-81.8810,2.09,6.89,1111122 
SCCF RECON,ioos:station:SCCF:53:1,2009-04-08T10:00:00Z,26.6493,-81.8810,2.05,7.11,1111122 
SCCF RECON,ioos:station:SCCF:53:1,2009-04-08T11:00:00Z,26.6493,-81.8810,2.02,6.92,1111122 
SCCF RECON,ioos:station:SCCF:53:1,2009-04-08T12:00:00Z,26.6493,-81.8810,1.99,6.62,1111122 
SCCF RECON,ioos:station:SCCF:53:1,2009-04-08T13:00:00Z,26.6493,-81.8810,1.949,6.64,1111122 
SCCF RECON,ioos:station:SCCF:53:1,2009-04-08T14:00:00Z,26.6493,-81.8810,1.92,6.75,1111122 
SCCF RECON,ioos:station:SCCF:53:1,2009-04-08T15:00:00Z,26.6493,-81.8810,1.93,6.92,1111122 
SCCF RECON,ioos:station:SCCF:53:1,2009-04-08T16:00:00Z,26.6493,-81.8810,1.982,7.1,1111122 
SCCF RECON,ioos:station:SCCF:53:1,2009-04-08T17:00:00Z,26.6493,-81.8810,2.024,7.54,1111122 
SCCF RECON,ioos:station:SCCF:53:1,2009-04-08T18:00:00Z,26.6493,-81.8810,2.074,7.85,1111122 
SCCF RECON,ioos:station:SCCF:53:1,2009-04-08T19:00:00Z,26.6493,-81.8810,2.13,7.73,1111122 
SCCF RECON,ioos:station:SCCF:53:1,2009-04-08T20:00:00Z,26.6493,-81.8810,2.164,7.92,1111122 
SCCF RECON,ioos:station:SCCF:53:1,2009-04-08T21:00:00Z,26.6493,-81.8810,2.151,7.59,1111122 
SCCF RECON,ioos:station:SCCF:53:1,2009-04-08T22:00:00Z,26.6493,-81.8810,2.11,8.13,1111122 
SCCF RECON,ioos:station:SCCF:53:1,2009-04-08T23:00:00Z,26.6493,-81.8810,2.07,8.23,1111122 
SCCF RECON,ioos:station:SCCF:53:1,2009-04-09T00:00:00Z,26.6493,-81.8810,2.027,7.7,1111122 
SCCF RECON,ioos:station:SCCF:53:1,2009-04-09T01:00:00Z,26.6493,-81.8810,1.98,7.47,1111122 
SCCF RECON,ioos:station:SCCF:53:1,2009-04-09T02:00:00Z,26.6493,-81.8810,1.95,7.28,1111122 
SCCF RECON,ioos:station:SCCF:53:1,2009-04-09T03:00:00Z,26.6493,-81.8810,1.924,7.17,1111122 
SCCF RECON,ioos:station:SCCF:53:1,2009-04-09T04:00:00Z,26.6493,-81.8810,1.96,7.05,1111122 
SCCF RECON,ioos:station:SCCF:53:1,2009-04-09T05:00:00Z,26.6493,-81.8810,2.006,7.31,1111122 
SCCF RECON,ioos:station:SCCF:53:1,2009-04-09T06:00:00Z,26.6493,-81.8810,2.046,7.5,1111122 
SCCF RECON,ioos:station:SCCF:53:1,2009-04-09T07:00:00Z,26.6493,-81.8810,2.1,7.29,1111122 
SCCF RECON,ioos:station:SCCF:53:1,2009-04-09T08:00:00Z,26.6493,-81.8810,2.15,7.71,1111122 
SCCF RECON,ioos:station:SCCF:53:1,2009-04-09T09:00:00Z,26.6493,-81.8810,2.18,7.75,1111122 
SCCF RECON,ioos:station:SCCF:53:1,2009-04-09T10:00:00Z,26.6493,-81.8810,2.17,7.44,1111122 
SCCF RECON,ioos:station:SCCF:53:1,2009-04-09T11:00:00Z,26.6493,-81.8810,2.14,7.62,1111122 
SCCF RECON,ioos:station:SCCF:53:1,2009-04-09T12:00:00Z,26.6493,-81.8810,2.105,7.28,1111122 
SCCF RECON,ioos:station:SCCF:53:1,2009-04-09T13:00:00Z,26.6493,-81.8810,2.069,7.06,1111122 
SCCF RECON,ioos:station:SCCF:53:1,2009-04-09T14:00:00Z,26.6493,-81.8810,2.03,7.13,1111122 
SCCF RECON,ioos:station:SCCF:53:1,2009-04-09T15:00:00Z,26.6493,-81.8810,2.046,7.16,1111122 
SCCF RECON,ioos:station:SCCF:53:1,2009-04-09T16:00:00Z,26.6493,-81.8810,2.104,7.13,1111122 
SCCF RECON,ioos:station:SCCF:53:1,2009-04-09T17:00:00Z,26.6493,-81.8810,2.155,7.53,1111122 
SCCF RECON,ioos:station:SCCF:53:1,2009-04-09T18:00:00Z,26.6493,-81.8810,2.2,7.72,1111122 
SCCF RECON,ioos:station:SCCF:53:1,2009-04-09T19:00:00Z,26.6493,-81.8810,2.252,7.82,1111122 
SCCF RECON,ioos:station:SCCF:53:1,2009-04-09T20:00:00Z,26.6493,-81.8810,2.29,7.99,1111122 
SCCF RECON,ioos:station:SCCF:53:1,2009-04-09T21:00:00Z,26.6493,-81.8810,2.291,8.07,1111122 
SCCF RECON,ioos:station:SCCF:53:1,2009-04-09T22:00:00Z,26.6493,-81.8810,2.247,8.38,1111122 
SCCF RECON,ioos:station:SCCF:53:1,2009-04-09T23:00:00Z,26.6493,-81.8810,2.193,8.73,1111122 
SCCF RECON,ioos:station:SCCF:53:1,2009-04-10T00:00:00Z,26.6493,-81.8810,2.143,8.47,1111122 
SCCF RECON,ioos:station:SCCF:53:1,2009-04-10T01:00:00Z,26.6493,-81.8810,2.09,8.02,1111122 
SCCF RECON,ioos:station:SCCF:53:1,2009-04-10T02:00:00Z,26.6493,-81.8810,2.046,7.95,1111122 
SCCF RECON,ioos:station:SCCF:53:1,2009-04-10T03:00:00Z,26.6493,-81.8810,2.001,7.51,1111122 
SCCF RECON,ioos:station:SCCF:53:1,2009-04-10T04:00:00Z,26.6493,-81.8810,2.0,7.31,1111122 
SCCF RECON,ioos:station:SCCF:53:1,2009-04-10T05:00:00Z,26.6493,-81.8810,2.05,7.59,1111122 
SCCF RECON,ioos:station:SCCF:53:1,2009-04-10T06:00:00Z,26.6493,-81.8810,2.08,7.72,1111122 
SCCF RECON,ioos:station:SCCF:53:1,2009-04-10T07:00:00Z,26.6493,-81.8810,2.13,7.84,1111122 
SCCF RECON,ioos:station:SCCF:53:1,2009-04-10T08:00:00Z,26.6493,-81.8810,2.18,7.81,1111122 
SCCF RECON,ioos:station:SCCF:53:1,2009-04-10T09:00:00Z,26.6493,-81.8810,2.23,7.77,1111122 
SCCF RECON,ioos:station:SCCF:53:1,2009-04-10T10:00:00Z,26.6493,-81.8810,2.25,7.66,1111122 
SCCF RECON,ioos:station:SCCF:53:1,2009-04-10T11:00:00Z,26.6493,-81.8810,2.24,7.63,1111122 
SCCF RECON,ioos:station:SCCF:53:1,2009-04-10T12:00:00Z,26.6493,-81.8810,2.21,7.59,1111122 
SCCF RECON,ioos:station:SCCF:53:1,2009-04-10T13:00:00Z,26.6493,-81.8810,2.16,7.46,1111122 
SCCF RECON,ioos:station:SCCF:53:1,2009-04-10T14:00:00Z,26.6493,-81.8810,2.146,7.28,1111122 
SCCF RECON,ioos:station:SCCF:53:1,2009-04-10T15:00:00Z,26.6493,-81.8810,2.172,7.17,1111122 
SCCF RECON,ioos:station:SCCF:53:1,2009-04-10T16:00:00Z,26.6493,-81.8810,2.236,7.48,1111122 
SCCF RECON,ioos:station:SCCF:53:1,2009-04-10T17:00:00Z,26.6493,-81.8810,2.293,7.86,1111122 
SCCF RECON,ioos:station:SCCF:53:1,2009-04-10T18:00:00Z,26.6493,-81.8810,2.357,7.9,1111122 
SCCF RECON,ioos:station:SCCF:53:1,2009-04-10T19:00:00Z,26.6493,-81.8810,2.42,7.87,1111122 
SCCF RECON,ioos:station:SCCF:53:1,2009-04-10T20:00:00Z,26.6493,-81.8810,2.47,8.04,1111122 
SCCF RECON,ioos:station:SCCF:53:1,2009-04-10T21:00:00Z,26.6493,-81.8810,2.498,7.92,1111122 
SCCF RECON,ioos:station:SCCF:53:1,2009-04-10T22:00:00Z,26.6493,-81.8810,2.462,8.2,1111122 
SCCF RECON,ioos:station:SCCF:53:1,2009-04-10T23:00:00Z,26.6493,-81.8810,2.406,8.34,1111122 
SCCF RECON,ioos:station:SCCF:53:1,2009-04-11T00:00:00Z,26.6493,-81.8810,2.342,8.23,1111122 
SCCF RECON,ioos:station:SCCF:53:1,2009-04-11T01:00:00Z,26.6493,-81.8810,2.28,7.92,1111122 
SCCF RECON,ioos:station:SCCF:53:1,2009-04-11T02:00:00Z,26.6493,-81.8810,2.217,7.77,1111122 
SCCF RECON,ioos:station:SCCF:53:1,2009-04-11T03:00:00Z,26.6493,-81.8810,2.16,7.6,1111122 
SCCF RECON,ioos:station:SCCF:53:1,2009-04-11T04:00:00Z,26.6493,-81.8810,2.11,7.45,1111122 
SCCF RECON,ioos:station:SCCF:53:1,2009-04-11T05:00:00Z,26.6493,-81.8810,2.09,7.3,1111122 
SCCF RECON,ioos:station:SCCF:53:1,2009-04-11T06:00:00Z,26.6493,-81.8810,2.11,7.21,1111122 
SCCF RECON,ioos:station:SCCF:53:1,2009-04-11T07:00:00Z,26.6493,-81.8810,2.15,7.32,1111122 
SCCF RECON,ioos:station:SCCF:53:1,2009-04-11T08:00:00Z,26.6493,-81.8810,2.19,7.3,1111122 
SCCF RECON,ioos:station:SCCF:53:1,2009-04-11T09:00:00Z,26.6493,-81.8810,2.24,7.3,1111122 
SCCF RECON,ioos:station:SCCF:53:1,2009-04-11T10:00:00Z,26.6493,-81.8810,2.26,7.27,1111122 
SCCF RECON,ioos:station:SCCF:53:1,2009-04-11T11:00:00Z,26.6493,-81.8810,2.24,7.24,1111122 
SCCF RECON,ioos:station:SCCF:53:1,2009-04-11T12:00:00Z,26.6493,-81.8810,2.21,7.26,1111122 
SCCF RECON,ioos:station:SCCF:53:1,2009-04-11T13:00:00Z,26.6493,-81.8810,2.18,7.18,1111122 
SCCF RECON,ioos:station:SCCF:53:1,2009-04-11T14:00:00Z,26.6493,-81.8810,2.147,7.02,1111122 
SCCF RECON,ioos:station:SCCF:53:1,2009-04-11T15:00:00Z,26.6493,-81.8810,2.123,7.03,1111122 
SCCF RECON,ioos:station:SCCF:53:1,2009-04-11T16:00:00Z,26.6493,-81.8810,2.16,7.22,1111122 
SCCF RECON,ioos:station:SCCF:53:1,2009-04-11T17:00:00Z,26.6493,-81.8810,2.225,7.45,1111122 
SCCF RECON,ioos:station:SCCF:53:1,2009-04-11T18:00:00Z,26.6493,-81.8810,2.276,7.59,1111122 
SCCF RECON,ioos:station:SCCF:53:1,2009-04-11T19:00:00Z,26.6493,-81.8810,2.328,7.72,1111122 
SCCF RECON,ioos:station:SCCF:53:1,2009-04-11T20:00:00Z,26.6493,-81.8810,2.374,7.75,1111122 